K5TCS Weather Reports


Display with metric or nautical units.
time (UTC)temp
F
wind
direction
speed
MPH
gust
MPH
rain 1hr
in
rain 24hr
in
rain mn
in
humidity
%
barometer
mb
20260904195016 75 0 3.0 11.0 0.01 0.12 0.01 34 1026.3
20260904194017 72 23 3.0 7.0 0.01 0.12 0.01 28 1025.4
20260904193017 72 293 3.0 7.0 0.01 0.12 0.01 40 1025.9
20260904192017 73 293 4.0 10.0 0.00 0.21 0.00 43 1026.4
20260904191016 75 293 4.0 13.0 0.00 0.30 0.00 42 1027.2
20260904190016 75 293 3.0 10.0 0.00 0.40 0.00 42 1027.0
20260904185016 74 293 5.0 12.0 0.00 0.42 0.00 42 1027.1
20260904184016 74 315 4.0 10.0 0.00 0.45 0.00 43 1027.1
20260904183016 73 315 5.0 12.0 0.00 0.46 0.00 45 1027.2
20260904182016 74 270 4.0 12.0 0.00 0.46 0.00 46 1027.4
20260904181016 81 158 2.0 15.0 0.00 0.46 0.00 44 1029.1
20260904180016 82 135 1.0 5.0 0.00 0.46 0.00 38 1029.2
20260904175016 82 135 2.0 8.0 0.00 0.46 0.00 38 1029.2
20260904174016 81 113 3.0 13.0 0.00 0.46 0.00 40 1028.6
20260904173016 81 135 3.0 11.0 0.00 0.46 0.00 39 1028.7
20260904172036 80 135 1.0 9.0 0.00 0.46 0.00 40 1028.8
20260904171016 79 45 1.0 5.0 0.00 0.46 0.00 41 1029.3
20260904170016 78 0.0 3.0 0.00 0.46 0.00 41 1028.8
20260904165016 78 0.0 1.0 0.00 0.46 0.00 41 1028.9
20260904164036 79 0.0 3.0 0.00 0.46 0.00 41 1029.3
20260904163016 80 0.0 3.0 0.00 0.46 0.00 39 1030.0
20260904162036 79 0.0 1.0 0.00 0.46 0.00 39 1029.4
20260904161043 78 0.0 1.0 0.00 0.46 0.00 39 1029.5
20260904160016 77 270 1.0 6.0 0.00 0.46 0.00 38 1028.8
20260904155016 77 338 1.0 6.0 0.00 0.46 0.00 37 1028.8
20260904154016 76 338 2.0 6.0 0.00 0.46 0.00 36 1028.4
20260904153016 75 270 3.0 7.0 0.00 0.46 0.00 36 1028.4
20260904152016 75 270 2.0 9.0 0.00 0.46 0.00 35 1028.3
20260904151016 74 270 2.0 6.0 0.00 0.46 0.00 33 1027.9
20260904150016 73 270 2.0 11.0 0.00 0.46 0.00 32 1027.2
20260904145036 72 293 3.0 7.0 0.00 0.46 0.00 32 1027.4
20260904144016 71 315 3.0 10.0 0.00 0.46 0.00 31 1027.5
20260904143016 71 293 2.0 6.0 0.00 0.46 0.00 30 1027.2
20260904142016 70 315 2.0 6.0 0.00 0.46 0.00 29 1026.6
20260904141036 69 315 1.0 5.0 0.00 0.46 0.00 29 1026.6
20260904140015 67 270 2.0 7.0 0.00 0.46 0.00 29 1026.1
20260904135016 66 293 2.0 5.0 0.00 0.46 0.00 28 1025.5
20260904134016 64 270 1.0 5.0 0.00 0.46 0.00 27 1025.3
20260904133016 63 270 1.0 4.0 0.00 0.46 0.00 27 1024.9
20260904132016 63 0.0 3.0 0.00 0.46 0.00 25 1024.8
20260904131015 61 0.0 2.0 0.00 0.46 0.00 25 1024.7
20260904130015 62 0.0 0.0 0.00 0.46 0.00 25 1024.6
20260904125017 61 0.0 0.0 0.00 0.46 0.00 25 1024.7
20260904124015 61 0.0 0.0 0.00 0.46 0.00 24 1023.9
20260904123018 60 0.0 0.0 0.00 0.46 0.00 25 1023.6
20260904122017 61 0.0 0.0 0.00 0.46 0.00 25 1024.0
20260904121017 62 0.0 1.0 0.00 0.46 0.00 27 1023.8
20260904120017 63 0.0 1.0 0.00 0.46 0.00 27 1023.9
20260904115017 63 248 1.0 5.0 0.00 0.46 0.00 28 1023.7
20260904114017 63 248 1.0 4.0 0.00 0.46 0.00 28 1024.6
20260904113017 63 0.0 3.0 0.00 0.46 0.00 27 1024.6
20260904112017 63 248 1.0 3.0 0.00 0.46 0.00 27 1024.6
20260904111017 63 0.0 2.0 0.00 0.46 0.00 26 1025.5
20260904110017 63 0.0 0.0 0.00 0.46 0.00 27 1025.7
20260904105017 64 0.0 4.0 0.00 0.46 0.00 28 1025.7
20260904104017 64 0.0 3.0 0.00 0.46 0.00 28 1025.7
20260904103017 65 270 1.0 6.0 0.00 0.46 0.00 28 1025.7
20260904102017 65 248 2.0 7.0 0.00 0.46 0.00 27 1026.0
20260904101017 65 248 4.0 10.0 0.00 0.46 0.00 27 1025.1
20260904100017 65 270 4.0 10.0 0.00 0.46 0.00 26 1025.0
20260904095017 65 270 5.0 11.0 0.00 0.46 0.00 26 1024.9
20260904094017 64 270 3.0 7.0 0.00 0.46 0.00 26 1025.8
20260904093017 64 248 2.0 8.0 0.00 0.46 0.00 27 1025.6
20260904092017 64 203 1.0 7.0 0.00 0.46 0.00 27 1025.9
20260904091017 64 225 1.0 6.0 0.00 0.46 0.00 29 1025.3
20260904090017 65 203 2.0 7.0 0.00 0.46 0.00 30 1025.8
20260904085017 65 203 2.0 11.0 0.00 0.46 0.00 31 1025.8
20260904084037 65 203 2.0 9.0 0.00 0.46 0.00 30 1025.3
20260904083017 65 203 2.0 5.0 0.00 0.46 0.00 30 1025.4
20260904082017 65 203 3.0 8.0 0.00 0.46 0.00 29 1025.6
20260904081016 65 203 4.0 9.0 0.00 0.46 0.00 29 1025.2
20260904080017 65 203 4.0 12.0 0.00 0.46 0.00 28 1025.1
20260904075037 64 203 3.0 9.0 0.00 0.46 0.00 25 1024.9
20260904074017 63 203 2.0 7.0 0.00 0.46 0.00 24 1024.9
20260904073017 63 203 2.0 6.0 0.00 0.46 0.00 24 1025.3
20260904072017 64 180 1.0 10.0 0.00 0.46 0.00 25 1025.3
20260904071016 64 180 2.0 10.0 0.00 0.46 0.00 25 1026.6
20260904070016 64 203 3.0 11.0 0.00 0.46 0.00 26 1026.3
20260904065017 64 203 3.0 11.0 0.00 0.46 0.00 28 1026.6
20260904064037 64 203 4.0 10.0 0.00 0.46 0.00 29 1028.5
20260904063016 65 203 3.0 12.0 0.00 0.46 0.00 29 1028.5
20260904062017 65 203 3.0 11.0 0.00 0.46 0.00 29 1029.0
20260904061016 65 203 3.0 10.0 0.00 0.46 0.00 29 1029.6
20260904060016 65 203 3.0 9.0 0.00 0.46 0.46 29 1029.6
20260904055036 64 203 2.0 9.0 0.00 0.46 0.46 28 1029.5
20260904054016 62 203 1.0 9.0 0.00 0.46 0.46 24 1028.7
20260904053016 61 0.0 0.0 0.00 0.46 0.46 26 1028.7
20260904052016 62 0.0 0.0 0.00 0.46 0.46 29 1028.8
20260904051016 63 0.0 0.0 0.00 0.46 0.46 32 1028.5
20260904050016 64 0.0 0.0 0.00 0.46 0.46 34 1028.5
20260904045016 65 0.0 3.0 0.00 0.46 0.46 35 1029.0
20260904044016 66 293 1.0 3.0 0.00 0.46 0.46 34 1029.0
20260904043016 66 270 1.0 3.0 0.00 0.46 0.46 33 1029.2
20260904042016 66 270 1.0 4.0 0.00 0.46 0.46 33 1029.2
20260904041016 66 270 1.0 5.0 0.00 0.46 0.46 32 1029.2
20260904040016 66 270 1.0 5.0 0.00 0.46 0.46 32 1029.3
20260904035016 66 270 2.0 5.0 0.00 0.46 0.46 31 1029.1
20260904034036 65 248 3.0 7.0 0.00 0.46 0.46 31 1028.2
20260904033016 65 248 1.0 5.0 0.00 0.46 0.46 31 1028.2
20260904032016 66 270 3.0 6.0 0.00 0.46 0.46 30 1028.1
20260904031016 65 270 3.0 6.0 0.00 0.46 0.46 30 1028.1
20260904030036 65 248 3.0 9.0 0.00 0.46 0.46 29 1027.9
20260904025016 65 248 2.0 9.0 0.00 0.46 0.46 28 1027.2
20260904024015 64 248 3.0 7.0 0.00 0.46 0.46 27 1025.9
20260904023015 63 248 1.0 6.0 0.00 0.46 0.46 24 1025.8
20260904022015 65 270 2.0 8.0 0.00 0.46 0.46 28 1026.2
20260904021015 65 270 3.0 7.0 0.00 0.46 0.46 28 1024.8
20260904020016 65 248 1.0 5.0 0.00 0.46 0.46 25 1024.5
20260904015015 65 270 1.0 9.0 0.00 0.46 0.46 25 1024.4
20260904014016 65 248 2.0 7.0 0.00 0.46 0.46 22 1023.2
20260904013015 65 270 1.0 5.0 0.00 0.46 0.46 21 1022.9
20260904012035 66 270 1.0 3.0 0.00 0.46 0.46 17 1022.9
20260904011016 66 0.0 4.0 0.00 0.46 0.46 18 1023.0
20260904010018 67 0.0 4.0 0.00 0.46 0.46 18 1023.3
20260904005037 67 0.0 3.0 0.00 0.46 0.46 14 1023.1
20260904004017 67 0.0 2.0 0.01 0.46 0.46 8 1022.9
20260904003017 66 0.0 2.0 0.01 0.46 0.46 9 1022.7
20260904002017 65 0.0 2.0 0.04 0.46 0.46 9 1022.2
20260904001017 65 0.0 2.0 0.09 0.46 0.46 9 1022.0
20260904000017 65 0.0 1.0 0.09 0.46 0.46 9 1021.7
20260903235017 64 0.0 3.0 0.09 0.46 0.46 10 1021.5
20260903234017 64 0.0 3.0 0.08 0.45 0.45 16 1021.5
20260903233017 65 0 1.0 4.0 0.08 0.45 0.45 28 1021.8
20260903232017 67 248 2.0 7.0 0.05 0.42 0.42 37 1022.6
20260903231017 70 0.0 0.0 0.00 0.37 0.37 42 1023.2
20260903230037 70 23 1.0 5.0 0.00 0.37 0.37 41 1022.8
20260903225017 71 45 2.0 6.0 0.00 0.37 0.37 41 1023.2
20260903224017 72 45 2.0 6.0 0.00 0.37 0.37 40 1023.2
20260903223017 72 23 3.0 10.0 0.02 0.37 0.37 39 1023.2
20260903222017 71 23 2.0 6.0 0.02 0.37 0.37 38 1023.1
20260903221017 69 23 2.0 10.0 0.02 0.37 0.37 38 1022.4
20260903220037 69 23 3.0 7.0 0.02 0.37 0.37 36 1022.3
20260903215017 68 23 2.0 9.0 0.02 0.37 0.37 33 1022.2
20260903214017 69 23 3.0 9.0 0.02 0.37 0.37 43 1022.9
20260903213017 71 23 4.0 10.0 0.00 0.35 0.35 43 1023.6
20260903212017 73 23 5.0 13.0 0.00 0.35 0.35 40 1023.9
20260903211017 73 23 4.0 12.0 0.00 0.35 0.35 39 1023.7
20260903210017 70 23 5.0 12.0 0.00 0.35 0.35 41 1022.9
20260903205017 69 0 6.0 16.0 0.00 0.35 0.35 41 1022.7
20260903204017 69 0 5.0 15.0 0.00 0.35 0.35 40 1022.7
20260903203037 69 23 3.0 9.0 0.00 0.35 0.35 40 1022.5
20260903202017 68 0 5.0 12.0 0.10 0.35 0.35 40 1021.9
20260903201017 67 0 5.0 13.0 0.19 0.35 0.35 40 1021.9
20260903200017 66 0 4.0 12.0 0.29 0.35 0.35 38 1021.6